Regional Weather Roundup
Issued by NWS

Home | Current Version | Previous Version | Graphics & Text | Print | Product List | Glossary On
Versions: 1 2 3 4 5 6 7 8 9 10 11 12 13 14 15 16 17 18 19 20 21 22 23 24 25 26 27 28 29 30 31 32 33 34 35 36 37 38 39 40 41 42 43 44 45 46 47 48 49 50
000
ASUS43 KFSD 180310
RWRSD

WEATHER ROUNDUP FOR SOUTH DAKOTA
NATIONAL WEATHER SERVICE SIOUX FALLS SD
1000 PM CDT FRI APR 17 2015

NOTE: "FAIR" INDICATES FEW OR NO CLOUDS BELOW 12,000 FEET WITH NO
SIGNIFICANT WEATHER AND/OR OBSTRUCTIONS TO VISIBILITY.


SDZ001>005-009-010-012>017-180400-
NORTHWEST AND NORTH CENTRAL SOUTH DAKOTA

CITY           SKY/WX    TMP DP  RH WIND       PRES   REMARKS
BUFFALO          N/A     56  29  35 E8        30.03S
FAITH            N/A     59  22  24 SE9       30.09R
MOBRIDGE       MOCLDY    51  26  37 CALM      30.06R
$$

SDZ012>016-024>037-041>051-057-063-072>074-180400-
SOUTHWEST AND SOUTH CENTRAL SOUTH DAKOTA

CITY           SKY/WX    TMP DP  RH WIND       PRES   REMARKS
RAPID CTY ARPT LGT RAIN  48  44  86 SW9       30.12S
PIERRE         CLOUDY    59  45  59 W10       30.07R
CUSTER         LGT RAIN  40  37  89 E10       30.14R
ELLSWORTH AFB  CLOUDY    50  43  77 SW8       30.12R
PHILIP         LGT RAIN  51  48  89 VRB5      30.11R
PINE RIDGE     LGT RAIN  49  46  90 E14       30.09R
SPEARFISH      FAIR      48  34  57 SE7       30.12R
WINNER         CLOUDY    56  51  84 CALM      30.07R
$$

SDZ004>011-016>023-039-040-180400-
NORTHEAST SOUTH DAKOTA

CITY           SKY/WX    TMP DP  RH WIND       PRES   REMARKS
ABERDEEN       PTCLDY    50  23  34 N5        30.06S
WATERTOWN      MOCLDY    56  20  24 CALM      30.08R
BROOKINGS      PTCLDY    57  23  26 NE6       30.07S
SISSETON         N/A     49  25  39 W5        30.05R
$$

SDZ017-020-022-023-036>040-048>070-180400-
SOUTHEAST SOUTH DAKOTA

CITY           SKY/WX    TMP DP  RH WIND       PRES   REMARKS
SIOUX FALLS    CLOUDY    65  33  30 CALM      30.04R
HURON          MOCLDY    55  25  31 NE5       30.06R
CHAMBERLAIN    LGT RAIN  59  45  61 NW3       30.07S
MITCHELL       CLOUDY    63  34  33 CALM      30.05R
YANKTON        CLOUDY    61  48  63 N9        30.02S
$$

ABBREVIATIONS USED IN REMARKS
   TC - TEMPERATURE IN CELSIUS
  WCI - WIND CHILL INDEX
   HX - HEAT INDEX
  VSB - VISIBILITY




USA.gov is the U.S. government's official web portal to all federal, state and local government web resources and services.